weather.gov     
National Weather Service

Regional Weather Roundup
NWS Homepage
This page is being discontinued on March 12, 2014.
The same data is available at this site. Please update your bookmarks.
Thank you, and we apologize for the inconvenience.
Please send an email to SR-SRH.Webmaster@noaa.gov with any concerns.


Current Version
Previous Version:    01  02  03  04  05  06  07  08  09  10  11  12  13  14  15  16  17  18  19  20  21  22  23  24  25  26  27  28  29  30  
   31  32  33  34  35  36  37  38  39  40  41  42  43  44  45  46  47  48  49  50  51  52  53  
[Printable]
001
ASCA42 TJSJ 020911
RWRPR
PUERTO RICO/U.S. VIRGIN ISLANDS HOURLY WEATHER ROUNDUP
NATIONAL WEATHER SERVICE SAN JUAN PR
500 AM AST TUE SEP 02 2014

PRZ001-004-021000-
PUERTO RICO

CITY           SKY/WX    TMP DP  RH WIND       PRES   REMARKS
SAN JUAN LMM   PTCLDY    79  75  89 CALM      29.97S
CEIBA          RAIN      79  75  89 E6        29.99S
$$

PRZ006-007-021000-
U.S. VIRGIN ISLANDS

CITY           SKY/WX    TMP DP  RH WIND       PRES   REMARKS
CHRISTIANSTED  PTCLDY    81  75  83 E8G16     29.96S
$$

HOURLY WEATHER ROUNDUP FOR THE NEWS MEDIA

CITY           SKY/WX    TMP DP  RH WIND       PRES   REMARKS
MIAMI          PTCLDY    81  74  79 NE3       30.01F
ORLANDO        CLEAR     79  74  84 CALM      30.05F
NEW YORK       CLEAR     75  72  90 SW5       29.91F
NEWARK         CLEAR     76  73  91 SW6       29.89F
CHICAGO        MOCLDY    69  64  84 W6        29.87S
HARTFORD       CLOUDY    70  70 100 SE5       29.90F FOG
BOSTON         PTCLDY    72  70  93 S5        29.89S
DALLAS         CLEAR     82  70  66 S15       29.88R
PHILADELPHIA   PTCLDY    77  72  84 SW3       29.91F




U.S. Dept. of Commerce
NOAA National Weather Service
1325 East West Highway
Silver Spring, MD 20910
E-mail: w-nws.webmaster@noaa.gov
Page last modified: May 16, 2007
NATIONAL WEATHER SERVICE: for Safety, for Work, for Fun - FOR LIFE